TimeEDT,TemperatureF,Dew PointF,Humidity,Sea Level PressureIn,VisibilityMPH,Wind Direction,Wind SpeedMPH,Gust SpeedMPH,PrecipitationIn,Events,Conditions,WindDirDegrees,DateUTC
12:54 AM,68.0,63.0,84,30.04,10.0,South,4.6,-,N/A,,Clear,190,2013-10-06 04:54:00
1:54 AM,68.0,62.1,81,30.04,10.0,South,6.9,-,N/A,,Clear,190,2013-10-06 05:54:00
2:54 AM,66.9,61.0,81,30.03,10.0,SSW,5.8,-,N/A,,Clear,200,2013-10-06 06:54:00
3:54 AM,66.0,59.0,78,30.01,10.0,SSW,5.8,-,N/A,,Clear,200,2013-10-06 07:54:00
4:54 AM,64.9,59.0,81,30.01,10.0,South,4.6,-,N/A,,Clear,190,2013-10-06 08:54:00
5:54 AM,64.0,60.1,87,30.01,10.0,South,5.8,-,N/A,,Clear,190,2013-10-06 09:54:00
6:54 AM,64.0,60.1,87,30.03,10.0,SSW,4.6,-,N/A,,Scattered Clouds,200,2013-10-06 10:54:00
7:54 AM,64.0,61.0,90,30.04,7.0,South,3.5,-,N/A,,Scattered Clouds,190,2013-10-06 11:54:00
8:54 AM,69.1,63.0,81,30.04,10.0,SSW,4.6,-,N/A,,Scattered Clouds,210,2013-10-06 12:54:00
9:54 AM,73.9,64.0,71,30.04,10.0,WSW,8.1,-,N/A,,Mostly Cloudy,240,2013-10-06 13:54:00
10:54 AM,77.0,64.0,64,30.04,10.0,SW,8.1,-,N/A,,Mostly Cloudy,230,2013-10-06 14:54:00
11:54 AM,79.0,62.1,56,30.02,10.0,SSW,11.5,-,N/A,,Scattered Clouds,210,2013-10-06 15:54:00
12:54 PM,81.0,61.0,50,30.00,10.0,South,11.5,-,N/A,,Mostly Cloudy,190,2013-10-06 16:54:00
1:54 PM,81.0,61.0,50,29.97,10.0,SSW,9.2,-,N/A,,Mostly Cloudy,200,2013-10-06 17:54:00
2:54 PM,82.0,62.1,51,29.95,10.0,SSW,10.4,-,N/A,,Mostly Cloudy,200,2013-10-06 18:54:00
3:54 PM,82.9,61.0,47,29.93,10.0,SSE,15.0,-,N/A,,Scattered Clouds,160,2013-10-06 19:54:00
4:54 PM,82.0,61.0,49,29.92,10.0,South,12.7,-,N/A,,Mostly Cloudy,180,2013-10-06 20:54:00
5:54 PM,80.1,60.1,50,29.92,10.0,South,11.5,-,N/A,,Partly Cloudy,170,2013-10-06 21:54:00
6:54 PM,75.9,60.1,58,29.93,10.0,South,8.1,-,N/A,,Partly Cloudy,190,2013-10-06 22:54:00
7:54 PM,73.9,61.0,64,29.93,10.0,South,3.5,-,N/A,,Clear,180,2013-10-06 23:54:00
8:54 PM,71.1,61.0,70,29.92,10.0,South,4.6,-,N/A,,Clear,180,2013-10-07 00:54:00
9:54 PM,69.1,61.0,75,29.93,10.0,SSE,5.8,-,N/A,,Partly Cloudy,160,2013-10-07 01:54:00
10:54 PM,71.1,64.9,81,29.92,10.0,South,11.5,-,N/A,,Partly Cloudy,170,2013-10-07 02:54:00
11:54 PM,71.1,66.9,87,29.91,10.0,South,8.1,-,N/A,,Mostly Cloudy,170,2013-10-07 03:54:00